Traverse City, MI

1:57 AM EST on December 15, 2017 (GMT -0500)
Cherry Capital

Weather History for KTVC - January, 2013

Change the Weather History Date:

Wednesday, January 16, 2013

  Actual Average Record
Temperature  
Mean Temperature 27 °F 21 °F  
Max Temperature 31 °F 28 °F 53 °F (1949)
Min Temperature 22 °F 15 °F -15 °F (1965)
Degree Days  
Heating Degree Days 38 44  
Month to date heating degree days 555 689  
Since 1 July heating degree days 3022 3497  
Moisture  
Dew Point 23 °F    
Average Humidity 78    
Maximum Humidity 92    
Minimum Humidity 63    
Precipitation  
Precipitation 0.06 in 0.10 in 1.40 in (1975)
Month to date precipitation 0.42 1.56  
Year to date precipitation 0.42 1.56  
Snow  
Snow 0.00 in - - ()
Snow Depth 2.00 in    
Sea Level Pressure  
Sea Level Pressure 29.80 in    
Wind  
Wind Speed 8 mph (WSW)    
Max Wind Speed 18 mph    
Max Gust Speed 29 mph    
Visibility 5 miles    
Events Snow    
T = Trace of Precipitation, MM = Missing Value Source: NWS Daily Summary

Daily Weather History Graph

Daily Weather History Graph

Search for Another Location

Airport or City:

Trip Planner

Search our weather history database for the weather conditions in past years. The results will help you decide how hot, cold, wet, or windy it might be!

Date:

Astronomy

Jan. 16, 2013 Rise Set
Actual Time 8:15 AM EST 5:29 PM EST
Civil Twilight 7:42 AM EST 6:01 PM EST
Nautical Twilight 7:06 AM EST 6:37 PM EST
Astronomical Twilight 6:31 AM EST 7:12 PM EST
Moon 10:35 AM EST (1/16) 11:37 PM EST (1/16)
Length of Visible Light 10h 18m
Length of Day
9h 14m
Waxing Crescent, 28% of the Moon is Illuminated
Jan 16
Waxing Crescent
Jan 18
First Quarter
Jan 26
Full
Feb 3
Last Quarter
Feb 10
New

Hourly Weather History & Observations

Time (EST) Temp. Windchill Dew Point Humidity Pressure Visibility Wind Dir Wind Speed Gust Speed Precip Events Conditions
1:53 AM 23.0 °F 17.0 °F 17.1 °F 78% 30.02 in 10.0 mi South 4.6 mph - N/A   Mostly Cloudy
2:53 AM 23.0 °F 18.4 °F 17.1 °F 78% 29.99 in 10.0 mi Variable 3.5 mph - N/A   Clear
3:53 AM 23.0 °F 13.9 °F 17.1 °F 78% 29.96 in 10.0 mi SSW 8.1 mph - N/A   Clear
4:53 AM 23.0 °F 14.7 °F 17.1 °F 78% 29.92 in 10.0 mi SSW 6.9 mph - N/A   Clear
5:53 AM 24.1 °F 16.0 °F 16.0 °F 71% 29.88 in 10.0 mi SSW 6.9 mph - N/A   Clear
7:53 AM 24.1 °F 14.4 °F 15.1 °F 69% 29.81 in 10.0 mi SSW 9.2 mph - N/A   Scattered Clouds
8:53 AM 26.1 °F 16.8 °F 16.0 °F 66% 29.79 in 10.0 mi SSW 9.2 mph 18.4 mph N/A   Mostly Cloudy
9:53 AM 28.0 °F 18.1 °F 17.1 °F 63% 29.75 in 10.0 mi SSW 11.5 mph 18.4 mph N/A   Mostly Cloudy
10:53 AM 28.9 °F 21.1 °F 19.0 °F 67% 29.72 in 10.0 mi SSW 8.1 mph 18.4 mph 0.00 in Snow Light Snow
11:29 AM 30.2 °F 19.3 °F 21.2 °F 69% 29.68 in 2.0 mi SW 15.0 mph 23.0 mph 0.00 in Snow Light Snow
11:53 AM 30.0 °F 20.0 °F 23.0 °F 75% 29.69 in 1.5 mi SW 12.7 mph 23.0 mph 0.00 in Snow Light Snow
12:51 PM 28.4 °F 19.7 °F 26.6 °F 93% 29.64 in 1.0 mi SW 9.2 mph 20.7 mph 0.00 in Snow Light Snow
12:53 PM 28.9 °F 21.1 °F 26.1 °F 89% 29.67 in 1.0 mi SW 8.1 mph 20.7 mph 0.00 in Snow Light Snow
1:15 PM 30.2 °F 24.3 °F 26.6 °F 86% 29.65 in 0.8 mi Variable 5.8 mph - 0.01 in Snow Light Snow
1:53 PM 30.0 °F 23.2 °F 27.0 °F 88% 29.68 in 0.8 mi SW 6.9 mph - 0.03 in Snow Light Snow
2:20 PM 30.2 °F 20.8 °F 26.6 °F 86% 29.66 in 1.5 mi WSW 11.5 mph 18.4 mph 0.01 in Snow Light Snow
2:26 PM 30.2 °F 19.8 °F 26.6 °F 86% 29.66 in 2.5 mi WSW 13.8 mph - 0.01 in Snow Light Snow
2:35 PM 30.2 °F 21.9 °F 26.6 °F 86% 29.66 in 3.0 mi WSW 9.2 mph 20.7 mph 0.01 in Snow Light Snow
2:41 PM 30.2 °F 20.8 °F 26.6 °F 86% 29.66 in 3.0 mi WSW 11.5 mph 18.4 mph 0.01 in Snow Light Snow
2:53 PM 30.9 °F 23.5 °F 26.1 °F 82% 29.69 in 3.0 mi WSW 8.1 mph 17.3 mph 0.01 in Snow Light Snow
3:53 PM 30.0 °F 24.1 °F 25.0 °F 82% 29.71 in 7.0 mi SW 5.8 mph - 0.00 in Snow Light Snow
4:53 PM 30.9 °F 24.3 °F 24.1 °F 76% 29.74 in 10.0 mi WSW 6.9 mph - 0.00 in Snow Light Snow
5:53 PM 30.9 °F 24.3 °F 24.1 °F 76% 29.78 in 10.0 mi West 6.9 mph - 0.00 in Snow Light Snow
6:53 PM 30.9 °F 24.3 °F 24.1 °F 76% 29.80 in 7.0 mi West 6.9 mph - 0.00 in Snow Light Snow
7:28 PM 30.2 °F 24.3 °F 24.8 °F 80% 29.79 in 2.5 mi WSW 5.8 mph - 0.00 in Snow Light Snow
7:53 PM 30.0 °F 24.1 °F 26.1 °F 85% 29.83 in 2.0 mi WSW 5.8 mph - 0.00 in Snow Light Snow
8:18 PM 30.2 °F 24.3 °F 26.6 °F 86% 29.82 in 1.5 mi WSW 5.8 mph - 0.00 in Snow Light Snow
8:48 PM 30.2 °F 24.3 °F 26.6 °F 86% 29.83 in 0.8 mi West 5.8 mph - 0.01 in Snow Light Snow
8:53 PM 30.0 °F 24.1 °F 27.0 °F 88% 29.86 in 0.8 mi West 5.8 mph - 0.01 in Snow Light Snow
9:03 PM 30.2 °F 20.8 °F 26.6 °F 86% 29.83 in 1.0 mi WNW 11.5 mph 17.3 mph 0.00 in Snow Light Snow
9:15 PM 30.2 °F 19.3 °F 26.6 °F 86% 29.85 in 0.8 mi NNW 15.0 mph 20.7 mph 0.00 in Snow Light Snow
9:28 PM 28.4 °F 19.7 °F 24.8 °F 86% 29.86 in 1.0 mi NNW 9.2 mph 18.4 mph 0.01 in Snow Light Snow
9:45 PM 28.4 °F 19.7 °F 24.8 °F 86% 29.87 in 2.0 mi NNW 9.2 mph - 0.01 in Snow Light Snow
9:53 PM 28.9 °F 21.1 °F 23.0 °F 78% 29.91 in 3.0 mi NNW 8.1 mph - 0.01 in Snow Light Snow
10:48 PM 28.4 °F 17.5 °F 17.6 °F 64% 29.91 in 10.0 mi NNW 13.8 mph - 0.00 in   Overcast
10:53 PM 28.9 °F 17.7 °F 17.1 °F 61% 29.94 in 10.0 mi NNW 15.0 mph 23.0 mph 0.00 in   Overcast
11:53 PM 28.0 °F 17.5 °F 15.1 °F 58% 29.98 in 10.0 mi North 12.7 mph 20.7 mph N/A   Overcast